Anaktuvuk Pass, AK

4:37 AM AKDT on March 24, 2017 (GMT -0800)
Anaktuvuk Pass

Weather History for PAKP - February, 2014

Change the Weather History Date:

Tuesday, February 4, 2014

  Actual Average Record
Temperature  
Mean Temperature 12 °F -  
Max Temperature 23 °F 0 °F 23 °F (2014)
Min Temperature 1 °F -12 °F -38 °F (2009)
Degree Days  
Heating Degree Days 53    
Moisture  
Dew Point 4 °F    
Average Humidity 61    
Maximum Humidity 79    
Minimum Humidity 49    
Precipitation  
Precipitation 0.00 in - - ()
Sea Level Pressure  
Sea Level Pressure 30.50 in    
Wind  
Wind Speed 8 mph (South)    
Max Wind Speed 18 mph    
Max Gust Speed 24 mph    
Visibility 10 miles    
Events      
Averages and records for this station are not official NWS values.
T = Trace of Precipitation, MM = Missing Value Source: NWS Daily Summary

Daily Weather History Graph

Daily Weather History Graph

Search for Another Location

Airport or City:

Trip Planner

Search our weather history database for the weather conditions in past years. The results will help you decide how hot, cold, wet, or windy it might be!

Date:

Astronomy

Feb. 04, 2014 Rise Set
Actual Time 10:11 AM AKST 4:31 PM AKST
Civil Twilight 9:01 AM AKST 5:41 PM AKST
Nautical Twilight 7:52 AM AKST 6:50 PM AKST
Astronomical Twilight 6:47 AM AKST 7:55 PM AKST
Moon 9:50 AM AKST (2/4) 12:24 AM AKST (2/4)
Length of Visible Light 8h 39m
Length of Day
6h 20m
Waxing Crescent, 30% of the Moon is Illuminated
Feb 4
Waxing Crescent
Feb 6
First Quarter
Feb 14
Full
Feb 22
Last Quarter
Feb 28
New

Hourly Weather History & Observations

Time (AKST) Temp. Windchill Dew Point Humidity Pressure Visibility Wind Dir Wind Speed Gust Speed Precip Events Conditions
12:16 AM 6.8 °F - 1.4 °F 79% 30.52 in 10.0 mi Calm Calm - N/A   Clear
12:36 AM 5.0 °F - -4.0 °F 66% 30.52 in 10.0 mi Calm Calm - N/A   Clear
12:56 AM 3.2 °F - -5.8 °F 66% 30.52 in 10.0 mi Calm Calm - N/A   Clear
1:16 AM 3.2 °F -4.2 °F -5.8 °F 66% 30.52 in 10.0 mi East 3.5 mph - N/A   Clear
1:36 AM 1.4 °F - -5.8 °F 72% 30.52 in 10.0 mi Calm Calm - N/A   Clear
1:56 AM 3.2 °F - -4.0 °F 72% 30.51 in 10.0 mi Calm Calm - N/A   Clear
2:16 AM 3.2 °F -6.2 °F -4.0 °F 72% 30.51 in 10.0 mi NNW 4.6 mph - N/A   Clear
2:36 AM 1.4 °F - -5.8 °F 72% 30.50 in 10.0 mi Calm Calm - N/A   Clear
2:56 AM 3.2 °F - -4.0 °F 72% 30.51 in 10.0 mi Calm Calm - N/A   Clear
3:16 AM 5.0 °F - -0.4 °F 78% 30.50 in 10.0 mi Calm Calm - N/A   Clear
3:36 AM 12.2 °F -1.8 °F 5.0 °F 73% 30.50 in 10.0 mi South 11.5 mph - N/A   Clear
3:56 AM 15.8 °F 2.1 °F 6.8 °F 68% 30.49 in 10.0 mi South 12.7 mph - N/A   Clear
4:16 AM 17.6 °F 7.3 °F 6.8 °F 63% 30.50 in 10.0 mi South 8.1 mph - N/A   Clear
4:36 AM 17.6 °F 5.0 °F 5.0 °F 58% 30.50 in 8.0 mi SSW 11.5 mph 20.7 mph N/A   Clear
4:56 AM 17.6 °F 3.7 °F 6.8 °F 63% 30.48 in 10.0 mi SSE 13.8 mph 19.6 mph N/A   Clear
5:16 AM 17.6 °F 5.0 °F 6.8 °F 63% 30.48 in 10.0 mi SSW 11.5 mph - N/A   Clear
5:36 AM 23.0 °F 8.7 °F 10.4 °F 59% 30.47 in 5.0 mi SW 18.4 mph 23.0 mph N/A   Clear
5:56 AM 23.0 °F 10.6 °F 8.6 °F 54% 30.47 in 10.0 mi WSW 13.8 mph 23.0 mph N/A   Clear
6:16 AM 21.2 °F 7.8 °F 8.6 °F 58% 30.47 in 10.0 mi SW 15.0 mph 21.9 mph N/A   Clear
6:36 AM 23.0 °F 11.7 °F 6.8 °F 50% 30.48 in 10.0 mi SW 11.5 mph 21.9 mph N/A   Clear
6:56 AM 23.0 °F 10.6 °F 6.8 °F 50% 30.49 in 10.0 mi SW 13.8 mph 21.9 mph N/A   Clear
7:16 AM 19.4 °F 6.0 °F 3.2 °F 49% 30.49 in 10.0 mi SSW 13.8 mph 20.7 mph N/A   Clear
7:36 AM 19.4 °F 6.0 °F 5.0 °F 54% 30.49 in 10.0 mi SW 13.8 mph - N/A   Clear
7:56 AM 19.4 °F 5.5 °F 6.8 °F 58% 30.50 in 10.0 mi SW 15.0 mph 21.9 mph N/A   Clear
8:16 AM 19.4 °F 7.9 °F 6.8 °F 58% 30.51 in 10.0 mi SSW 10.4 mph 20.7 mph N/A   Clear
8:36 AM 19.4 °F 9.5 °F 6.8 °F 58% 30.51 in 10.0 mi SSW 8.1 mph 16.1 mph N/A   Clear
8:56 AM 17.6 °F 3.2 °F 6.8 °F 63% 30.51 in 10.0 mi South 15.0 mph - N/A   Clear
9:16 AM 15.8 °F 3.4 °F 3.2 °F 58% 30.51 in 10.0 mi SSW 10.4 mph - N/A   Clear
9:36 AM 17.6 °F 1.7 °F 6.8 °F 63% 30.51 in 10.0 mi SSW 18.4 mph 24.2 mph N/A   Clear
9:56 AM 17.6 °F 2.2 °F 5.0 °F 58% 30.52 in 10.0 mi South 17.3 mph - N/A   Clear
10:16 AM 17.6 °F 3.7 °F 5.0 °F 58% 30.52 in 10.0 mi SW 13.8 mph 20.7 mph N/A   Clear
10:36 AM 17.6 °F 4.3 °F 3.2 °F 53% 30.52 in 10.0 mi SW 12.7 mph - N/A   Clear
10:56 AM 17.6 °F 5.0 °F 5.0 °F 58% 30.53 in 10.0 mi SSW 11.5 mph - N/A   Clear
11:16 AM 15.8 °F 2.1 °F 3.2 °F 58% 30.53 in 10.0 mi SW 12.7 mph 16.1 mph N/A   Clear
11:36 AM 17.6 °F 3.7 °F 6.8 °F 63% 30.53 in 7.0 mi SW 13.8 mph 18.4 mph N/A   Clear
11:56 AM 17.6 °F 3.2 °F 5.0 °F 58% 30.53 in 10.0 mi SSW 15.0 mph 19.6 mph N/A   Clear
12:16 PM 15.8 °F 7.2 °F 5.0 °F 62% 30.53 in 10.0 mi SSE 5.8 mph - N/A   Clear
12:36 PM 17.6 °F 8.2 °F 5.0 °F 58% 30.53 in 10.0 mi SSE 6.9 mph - N/A   Clear
12:56 PM 17.6 °F 8.2 °F 3.2 °F 53% 30.53 in 10.0 mi South 6.9 mph - N/A   Clear
1:16 PM 15.8 °F 2.7 °F 3.2 °F 58% 30.54 in 10.0 mi South 11.5 mph - N/A   Clear
1:36 PM 14.0 °F 0.5 °F 1.4 °F 57% 30.53 in 10.0 mi SSE 11.5 mph - N/A   Clear
1:56 PM 14.0 °F 0.5 °F 3.2 °F 62% 30.53 in 10.0 mi SSE 11.5 mph - N/A   Clear
2:16 PM 14.0 °F 0.5 °F 3.2 °F 62% 30.53 in 10.0 mi SSE 11.5 mph - N/A   Clear
2:36 PM 15.8 °F 1.4 °F 3.2 °F 58% 30.52 in 10.0 mi South 13.8 mph - N/A   Clear
2:56 PM 15.8 °F 2.1 °F 3.2 °F 58% 30.52 in 10.0 mi South 12.7 mph - N/A   Clear
3:16 PM 15.8 °F 1.4 °F 3.2 °F 58% 30.52 in 10.0 mi South 13.8 mph - N/A   Clear
3:36 PM 15.8 °F 2.7 °F 3.2 °F 58% 30.51 in 8.0 mi South 11.5 mph - N/A   Clear
3:56 PM 15.8 °F 0.9 °F 5.0 °F 62% 30.50 in 10.0 mi South 15.0 mph - N/A   Clear
4:16 PM 15.8 °F 2.1 °F 3.2 °F 58% 30.50 in 10.0 mi South 12.7 mph - N/A   Clear
4:36 PM 15.8 °F 1.4 °F 5.0 °F 62% 30.49 in 10.0 mi South 13.8 mph - N/A   Clear
4:56 PM 17.6 °F 3.2 °F 5.0 °F 58% 30.49 in 10.0 mi South 15.0 mph - N/A   Scattered Clouds
5:16 PM 17.6 °F 3.2 °F 3.2 °F 53% 30.49 in 9.0 mi South 15.0 mph - N/A   Scattered Clouds
5:36 PM 15.8 °F 0.9 °F 5.0 °F 62% 30.48 in 10.0 mi South 15.0 mph - N/A   Clear
5:56 PM 17.6 °F 3.7 °F 5.0 °F 58% 30.48 in 10.0 mi South 13.8 mph - N/A   Clear
6:16 PM 17.6 °F 3.7 °F 3.2 °F 53% 30.48 in 10.0 mi SSE 13.8 mph - N/A   Clear
6:36 PM 17.6 °F 5.0 °F 6.8 °F 63% 30.48 in 10.0 mi South 11.5 mph - N/A   Clear
6:56 PM 17.6 °F 3.7 °F 6.8 °F 63% 30.48 in 10.0 mi South 13.8 mph 18.4 mph N/A   Partly Cloudy
7:16 PM 17.6 °F 4.3 °F 6.8 °F 63% 30.48 in 10.0 mi South 12.7 mph - N/A   Scattered Clouds
7:36 PM 19.4 °F 7.2 °F 6.8 °F 58% 30.48 in 10.0 mi South 11.5 mph - N/A   Clear
7:56 PM 17.6 °F 1.7 °F 5.0 °F 58% 30.47 in 10.0 mi SSW 18.4 mph 23.0 mph N/A   Mostly Cloudy
8:16 PM 17.6 °F 2.7 °F 5.0 °F 58% 30.47 in 10.0 mi South 16.1 mph - N/A   Scattered Clouds
8:36 PM 15.8 °F 3.4 °F 5.0 °F 62% 30.47 in 10.0 mi South 10.4 mph - N/A   Clear
8:56 PM 15.8 °F 3.4 °F 3.2 °F 58% 30.46 in 10.0 mi South 10.4 mph - N/A   Clear
9:16 PM 14.0 °F 1.2 °F 3.2 °F 62% 30.46 in 10.0 mi South 10.4 mph - N/A   Clear
9:36 PM 15.8 °F 3.4 °F 5.0 °F 62% 30.46 in 10.0 mi SSE 10.4 mph - N/A   Clear
9:56 PM 15.8 °F 3.4 °F 3.2 °F 58% 30.47 in 10.0 mi South 10.4 mph - N/A   Clear
10:16 PM 15.8 °F 1.4 °F 3.2 °F 58% 30.46 in 10.0 mi SW 13.8 mph - N/A   Mostly Cloudy
10:36 PM 17.6 °F 3.2 °F 6.8 °F 63% 30.46 in 10.0 mi South 15.0 mph - N/A   Mostly Cloudy
10:56 PM 15.8 °F 0.3 °F 3.2 °F 58% 30.46 in 10.0 mi South 16.1 mph - N/A   Mostly Cloudy
11:16 PM 15.8 °F 3.4 °F 5.0 °F 62% 30.46 in 10.0 mi South 10.4 mph - N/A   Mostly Cloudy
11:36 PM 15.8 °F 5.1 °F 5.0 °F 62% 30.46 in 10.0 mi SW 8.1 mph - N/A   Overcast
11:56 PM 17.6 °F 5.7 °F 6.8 °F 63% 30.46 in 10.0 mi WSW 10.4 mph 17.3 mph N/A   Overcast